Time,TemperatureF,DewpointF,PressureIn,WindDirection,WindDirectionDegrees,WindSpeedMPH,WindSpeedGustMPH,Humidity,HourlyPrecipIn,Conditions,Clouds,dailyrainin,SoftwareType,DateUTC
2013-05-14 00:00:00,48.0,33.5,29.91,SSE,155,6.0,8.0,57,0.00, +TSGR FG,SKC,-99.99,VWS V12.07,2013-05-14 05:00:00,
2013-05-14 00:05:00,48.3,33.3,29.90,South,181,8.0,9.0,56,0.00, +TSGR FG,SKC,-99.99,VWS V12.07,2013-05-14 05:05:00,
2013-05-14 00:10:00,48.4,33.4,29.90,South,181,5.0,11.0,56,0.00, +TSGR FG,SKC,-99.99,VWS V12.07,2013-05-14 05:10:00,
2013-05-14 00:15:00,48.6,33.2,29.90,South,169,4.0,12.0,55,0.00, +TSGR FG,SKC,-99.99,VWS V12.07,2013-05-14 05:15:00,
2013-05-14 00:20:00,48.8,33.4,29.89,SSE,156,4.0,12.0,55,0.00, +TSGR FG,SKC,-99.99,VWS V12.07,2013-05-14 05:20:00,
2013-05-14 00:25:00,49.0,33.1,29.89,SSE,164,5.0,10.0,54,0.00, +TSGR FG,SKC,-99.99,VWS V12.07,2013-05-14 05:25:00,
2013-05-14 00:30:00,49.2,33.3,29.89,South,173,2.0,10.0,54,0.00, +TSGR FG,SKC,-99.99,VWS V12.07,2013-05-14 05:30:00,
2013-05-14 00:35:00,49.4,33.0,29.89,South,178,9.0,11.0,53,0.00, +TSGR FG,SKC,-99.99,VWS V12.07,2013-05-14 05:35:00,
2013-05-14 00:40:00,49.6,33.2,29.88,SSE,155,9.0,11.0,53,0.00, +TSGR FG,SKC,-99.99,VWS V12.07,2013-05-14 05:40:00,
2013-05-14 00:45:00,49.8,32.9,29.88,South,191,6.0,10.0,52,0.00, +TSGR FG,SKC,-99.99,VWS V12.07,2013-05-14 05:45:00,
2013-05-14 00:50:00,49.9,33.0,29.87,SSE,153,7.0,10.0,52,0.00, +TSGR FG,SKC,-99.99,VWS V12.07,2013-05-14 05:50:00,
2013-05-14 01:00:00,49.8,33.4,29.86,South,178,6.0,10.0,53,0.00, +TSGR FG,SKC,-99.99,VWS V12.07,2013-05-14 06:00:00,
2013-05-14 01:05:00,49.8,33.4,29.86,SSE,163,7.0,10.0,53,0.00, +TSGR FG,SKC,-99.99,VWS V12.07,2013-05-14 06:05:00,
2013-05-14 01:10:00,49.6,33.7,29.86,SW,215,3.0,10.0,54,0.00, +TSGR FG,SKC,-99.99,VWS V12.07,2013-05-14 06:10:00,
2013-05-14 01:15:00,49.4,33.5,29.86,SSE,161,2.0,6.0,54,0.00, +TSGR FG,SKC,-99.99,VWS V12.07,2013-05-14 06:15:00,
2013-05-14 01:20:00,49.3,33.8,29.85,South,184,4.0,7.0,55,0.00, +TSGR FG,SKC,-99.99,VWS V12.07,2013-05-14 06:20:00,
2013-05-14 01:25:00,49.2,34.2,29.85,South,169,8.0,8.0,56,0.00, +TSGR FG,SKC,-99.99,VWS V12.07,2013-05-14 06:25:00,
2013-05-14 01:30:00,49.2,34.2,29.84,South,175,6.0,8.0,56,0.00, +TSGR FG,SKC,-99.99,VWS V12.07,2013-05-14 06:30:00,
2013-05-14 01:35:00,49.2,34.6,29.84,South,182,2.0,7.0,57,0.00, +TSGR FG,SKC,-99.99,VWS V12.07,2013-05-14 06:35:00,
2013-05-14 01:40:00,49.1,34.5,29.83,South,178,5.0,7.0,57,0.00, +TSGR FG,SKC,-99.99,VWS V12.07,2013-05-14 06:40:00,
2013-05-14 01:45:00,49.2,35.1,29.83,South,186,3.0,6.0,58,0.00, +TSGR FG,SKC,-99.99,VWS V12.07,2013-05-14 06:45:00,
2013-05-14 01:50:00,49.2,35.1,29.83,South,191,3.0,6.0,58,0.00, +TSGR FG,SKC,-99.99,VWS V12.07,2013-05-14 06:50:00,
2013-05-14 01:55:00,49.4,35.7,29.83,South,176,2.0,7.0,59,0.00, +TSGR FG,SKC,-99.99,VWS V12.07,2013-05-14 06:55:00,
2013-05-14 02:00:00,49.5,35.3,29.82,SSW,201,6.0,8.0,58,0.00, +TSGR FG,SKC,-99.99,VWS V12.07,2013-05-14 07:00:00,
2013-05-14 02:05:00,49.8,35.6,29.82,South,189,4.0,9.0,58,0.00, +TSGR FG,SKC,-99.99,VWS V12.07,2013-05-14 07:05:00,
2013-05-14 02:10:00,49.9,35.7,29.82,South,189,3.0,9.0,58,0.00, +TSGR FG,SKC,-99.99,VWS V12.07,2013-05-14 07:10:00,
2013-05-14 02:15:00,50.1,35.9,29.81,SSW,206,8.0,9.0,58,0.00, +TSGR FG,SKC,-99.99,VWS V12.07,2013-05-14 07:15:00,
2013-05-14 02:20:00,50.3,36.1,29.81,South,175,2.0,9.0,58,0.00, +TSGR FG,SKC,-99.99,VWS V12.07,2013-05-14 07:20:00,
2013-05-14 02:25:00,50.5,36.3,29.81,SSW,198,3.0,8.0,58,0.00, +TSGR FG,SKC,-99.99,VWS V12.07,2013-05-14 07:25:00,
2013-05-14 02:30:00,50.6,36.4,29.81,SSW,192,6.0,8.0,58,0.00, +TSGR FG,SKC,-99.99,VWS V12.07,2013-05-14 07:30:00,
2013-05-14 02:35:00,50.8,36.1,29.81,SSW,204,5.0,12.0,57,0.00, +TSGR FG,SKC,-99.99,VWS V12.07,2013-05-14 07:35:00,
2013-05-14 02:40:00,50.9,36.2,29.80,SSW,213,5.0,12.0,57,0.00, +TSGR FG,SKC,-99.99,VWS V12.07,2013-05-14 07:40:00,
2013-05-14 02:45:00,51.0,36.8,29.80,South,186,5.0,14.0,58,0.00, +TSGR FG,SKC,-99.99,VWS V12.07,2013-05-14 07:45:00,
2013-05-14 02:50:00,50.9,36.7,29.80,South,183,4.0,14.0,58,0.00, +TSGR FG,SKC,-99.99,VWS V12.07,2013-05-14 07:50:00,
2013-05-14 02:55:00,51.0,36.8,29.80,South,170,6.0,12.0,58,0.00, +TSGR FG,SKC,-99.99,VWS V12.07,2013-05-14 07:55:00,
2013-05-14 03:00:00,51.0,36.8,29.79,SSW,196,8.0,12.0,58,0.00, +TSGR FG,SKC,-99.99,VWS V12.07,2013-05-14 08:00:00,
2013-05-14 03:05:00,50.9,37.1,29.79,South,188,8.0,11.0,59,0.00, +TSGR FG,SKC,-99.99,VWS V12.07,2013-05-14 08:05:00,
2013-05-14 03:10:00,50.8,37.0,29.79,SSE,166,7.0,11.0,59,0.00, +TSGR FG,SKC,-99.99,VWS V12.07,2013-05-14 08:10:00,
2013-05-14 03:15:00,50.6,37.2,29.78,South,171,4.0,8.0,60,0.00, +TSGR FG,SKC,-99.99,VWS V12.07,2013-05-14 08:15:00,
2013-05-14 03:20:00,50.6,37.2,29.78,South,189,4.0,11.0,60,0.00, +TSGR FG,SKC,-99.99,VWS V12.07,2013-05-14 08:20:00,
2013-05-14 03:25:00,50.7,37.3,29.78,South,172,6.0,8.0,60,0.00, +TSGR FG,SKC,-99.99,VWS V12.07,2013-05-14 08:25:00,
2013-05-14 03:30:00,50.9,37.5,29.78,South,188,7.0,10.0,60,0.00, +TSGR FG,SKC,-99.99,VWS V12.07,2013-05-14 08:30:00,
2013-05-14 03:35:00,50.9,37.5,29.78,SSW,194,2.0,8.0,60,0.00, +TSGR FG,SKC,-99.99,VWS V12.07,2013-05-14 08:35:00,
2013-05-14 03:40:00,50.9,38.0,29.77,South,169,5.0,9.0,61,0.00, +TSGR FG,SKC,-99.99,VWS V12.07,2013-05-14 08:40:00,
2013-05-14 03:45:00,51.0,38.0,29.77,South,182,4.0,9.0,61,0.00, +TSGR FG,SKC,-99.99,VWS V12.07,2013-05-14 08:45:00,
2013-05-14 03:50:00,51.0,38.0,29.76,South,181,4.0,9.0,61,0.00, +TSGR FG,SKC,-99.99,VWS V12.07,2013-05-14 08:50:00,
2013-05-14 03:55:00,51.1,38.1,29.76,South,183,6.0,9.0,61,0.00, +TSGR FG,SKC,-99.99,VWS V12.07,2013-05-14 08:55:00,
2013-05-14 04:00:00,51.4,38.4,29.76,South,190,8.0,11.0,61,0.00, +TSGR FG,SKC,-99.99,VWS V12.07,2013-05-14 09:00:00,
2013-05-14 04:05:00,51.6,38.6,29.76,South,184,5.0,8.0,61,0.00, +TSGR FG,SKC,-99.99,VWS V12.07,2013-05-14 09:05:00,
2013-05-14 04:10:00,51.7,38.7,29.75,South,188,2.0,8.0,61,0.00, +TSGR FG,SKC,-99.99,VWS V12.07,2013-05-14 09:10:00,
2013-05-14 04:15:00,52.0,39.0,29.75,South,188,2.0,8.0,61,0.00, +TSGR FG,SKC,-99.99,VWS V12.07,2013-05-14 09:15:00,
2013-05-14 04:20:00,52.2,38.8,29.75,SSW,199,5.0,10.0,60,0.00, +TSGR FG,SKC,-99.99,VWS V12.07,2013-05-14 09:20:00,
2013-05-14 04:25:00,52.3,38.8,29.74,South,190,5.0,7.0,60,0.00, +TSGR FG,SKC,-99.99,VWS V12.07,2013-05-14 09:25:00,
2013-05-14 04:30:00,52.6,39.1,29.74,South,173,2.0,10.0,60,0.00, +TSGR FG,SKC,-99.99,VWS V12.07,2013-05-14 09:30:00,
2013-05-14 04:35:00,52.9,39.4,29.74,South,189,2.0,8.0,60,0.00, +TSGR FG,SKC,-99.99,VWS V12.07,2013-05-14 09:35:00,
2013-05-14 04:40:00,53.1,39.6,29.74,South,177,5.0,11.0,60,0.00, +TSGR FG,SKC,-99.99,VWS V12.07,2013-05-14 09:40:00,
2013-05-14 04:45:00,53.3,39.3,29.73,South,177,4.0,7.0,59,0.00, +TSGR FG,SKC,-99.99,VWS V12.07,2013-05-14 09:45:00,
2013-05-14 04:50:00,53.4,39.9,29.73,South,191,3.0,8.0,60,0.00, +TSGR FG,SKC,-99.99,VWS V12.07,2013-05-14 09:50:00,
2013-05-14 04:55:00,53.5,40.0,29.73,South,175,6.0,8.0,60,0.00, +TSGR FG,SKC,-99.99,VWS V12.07,2013-05-14 09:55:00,
2013-05-14 05:00:00,53.6,40.1,29.73,SSW,199,1.0,8.0,60,0.00, +TSGR FG,SKC,-99.99,VWS V12.07,2013-05-14 10:00:00,
2013-05-14 05:05:00,53.8,40.3,29.72,South,182,2.0,6.0,60,0.00, +TSGR FG,SKC,-99.99,VWS V12.07,2013-05-14 10:05:00,
2013-05-14 05:10:00,54.0,40.4,29.72,SW,225,3.0,7.0,60,0.00, +TSGR FG,SKC,-99.99,VWS V12.07,2013-05-14 10:10:00,
2013-05-14 05:15:00,54.2,40.6,29.72,SSE,157,4.0,8.0,60,0.00, +TSGR FG,SKC,-99.99,VWS V12.07,2013-05-14 10:15:00,
2013-05-14 05:20:00,54.6,41.0,29.71,SSW,192,3.0,10.0,60,0.00, +TSGR FG,SKC,-99.99,VWS V12.07,2013-05-14 10:20:00,
2013-05-14 05:25:00,54.8,41.2,29.71,South,178,4.0,8.0,60,0.00, +TSGR FG,SKC,-99.99,VWS V12.07,2013-05-14 10:25:00,
2013-05-14 05:30:00,55.1,41.5,29.71,SSW,212,6.0,9.0,60,0.00, +TSGR FG,SKC,-99.99,VWS V12.07,2013-05-14 10:30:00,
2013-05-14 05:35:00,55.3,41.7,29.71,South,184,6.0,8.0,60,0.00, +TSGR FG,SKC,-99.99,VWS V12.07,2013-05-14 10:35:00,
2013-05-14 05:40:00,55.9,41.8,29.71,SSW,209,4.0,9.0,59,0.00, +TSGR FG,SKC,-99.99,VWS V12.07,2013-05-14 10:40:00,
2013-05-14 05:45:00,56.2,42.1,29.71,SSW,197,4.0,8.0,59,0.00, +TSGR FG,SKC,-99.99,VWS V12.07,2013-05-14 10:45:00,
2013-05-14 05:50:00,56.4,41.8,29.71,South,190,2.0,8.0,58,0.00, +TSGR FG,SKC,-99.99,VWS V12.07,2013-05-14 10:50:00,
2013-05-14 05:55:00,56.6,42.0,29.71,SSW,203,1.0,8.0,58,0.00, +TSGR FG,SKC,-99.99,VWS V12.07,2013-05-14 10:55:00,
2013-05-14 06:00:00,56.6,42.0,29.71,SW,220,3.0,8.0,58,0.00, +TSGR FG,SKC,-99.99,VWS V12.07,2013-05-14 11:00:00,
2013-05-14 06:05:00,56.8,42.2,29.71,SW,219,5.0,9.0,58,0.00, +TSGR FG,SKC,-99.99,VWS V12.07,2013-05-14 11:05:00,
2013-05-14 06:10:00,57.0,42.4,29.71,SSW,195,2.0,9.0,58,0.00, +TSGR FG,SKC,-99.99,VWS V12.07,2013-05-14 11:10:00,
2013-05-14 06:15:00,57.2,42.6,29.70,SSW,194,4.0,12.0,58,0.00, +TSGR FG,SKC,-99.99,VWS V12.07,2013-05-14 11:15:00,
2013-05-14 06:20:00,57.3,43.1,29.70,South,190,1.0,12.0,59,0.00, +TSGR FG,SKC,-99.99,VWS V12.07,2013-05-14 11:20:00,
2013-05-14 06:25:00,57.3,42.7,29.70,WSW,238,5.0,6.0,58,0.00, +TSGR FG,SKC,-99.99,VWS V12.07,2013-05-14 11:25:00,
2013-05-14 06:30:00,57.4,43.2,29.70,SSW,192,9.0,13.0,59,0.00, +TSGR FG,SKC,-99.99,VWS V12.07,2013-05-14 11:30:00,
2013-05-14 06:35:00,57.5,43.3,29.70,SSW,192,4.0,10.0,59,0.00, +TSGR FG,SKC,-99.99,VWS V12.07,2013-05-14 11:35:00,
2013-05-14 06:40:00,57.5,43.3,29.70,South,182,3.0,10.0,59,0.00, +TSGR FG,SKC,-99.99,VWS V12.07,2013-05-14 11:40:00,
2013-05-14 06:45:00,57.7,43.5,29.70,South,184,2.0,8.0,59,0.00, +TSGR FG,SKC,-99.99,VWS V12.07,2013-05-14 11:45:00,
2013-05-14 06:50:00,57.9,44.1,29.70,WSW,256,4.0,11.0,60,0.00, +TSGR FG,SKC,-99.99,VWS V12.07,2013-05-14 11:50:00,
2013-05-14 06:55:00,58.2,44.0,29.69,SW,220,4.0,7.0,59,0.00, +TSGR FG,SKC,-99.99,VWS V12.07,2013-05-14 11:55:00,
2013-05-14 07:00:00,58.4,44.1,29.69,SW,224,5.0,7.0,59,0.00, +TSGR FG,SKC,-99.99,VWS V12.07,2013-05-14 12:00:00,
2013-05-14 07:05:00,58.7,44.4,29.69,SW,231,5.0,11.0,59,0.00, +TSGR FG,SKC,-99.99,VWS V12.07,2013-05-14 12:05:00,
2013-05-14 07:10:00,59.0,44.7,29.69,West,275,4.0,11.0,59,0.00, +TSGR FG,SKC,-99.99,VWS V12.07,2013-05-14 12:10:00,
2013-05-14 07:15:00,59.3,45.4,29.69,South,179,7.0,8.0,60,0.00, +TSGR FG,SKC,-99.99,VWS V12.07,2013-05-14 12:15:00,
2013-05-14 07:20:00,59.6,45.3,29.69,SSW,196,3.0,9.0,59,0.00, +TSGR FG,SKC,-99.99,VWS V12.07,2013-05-14 12:20:00,
2013-05-14 07:25:00,59.8,45.9,29.69,SW,214,3.0,9.0,60,0.00, +TSGR FG,SKC,-99.99,VWS V12.07,2013-05-14 12:25:00,
2013-05-14 07:30:00,60.1,46.2,29.69,SSW,211,12.0,12.0,60,0.00, +TSGR FG,SKC,-99.99,VWS V12.07,2013-05-14 12:30:00,
2013-05-14 07:35:00,60.4,46.5,29.68,WSW,254,6.0,8.0,60,0.00, +TSGR FG,SKC,-99.99,VWS V12.07,2013-05-14 12:35:00,
2013-05-14 07:40:00,60.6,46.2,29.69,SW,223,3.0,8.0,59,0.00, +TSGR FG,SKC,-99.99,VWS V12.07,2013-05-14 12:40:00,
2013-05-14 07:45:00,60.8,46.4,29.69,SSW,192,3.0,11.0,59,0.00, +TSGR FG,SKC,-99.99,VWS V12.07,2013-05-14 12:45:00,
2013-05-14 07:50:00,61.0,46.6,29.68,SSW,212,6.0,11.0,59,0.00, +TSGR FG,SKC,-99.99,VWS V12.07,2013-05-14 12:50:00,
2013-05-14 07:55:00,61.1,47.1,29.68,SW,227,4.0,10.0,60,0.00, +TSGR FG,SKC,-99.99,VWS V12.07,2013-05-14 12:55:00,
2013-05-14 08:00:00,61.3,47.3,29.68,South,172,6.0,12.0,60,0.00, +TSGR FG,SKC,-99.99,VWS V12.07,2013-05-14 13:00:00,
2013-05-14 08:05:00,61.4,47.0,29.67,South,189,3.0,9.0,59,0.00, +TSGR FG,SKC,-99.99,VWS V12.07,2013-05-14 13:05:00,
2013-05-14 08:10:00,61.7,47.2,29.67,SSW,208,3.0,9.0,59,0.00, +TSGR FG,SKC,-99.99,VWS V12.07,2013-05-14 13:10:00,
2013-05-14 08:15:00,62.0,47.5,29.67,SW,221,3.0,11.0,59,0.00, +TSGR FG,SKC,-99.99,VWS V12.07,2013-05-14 13:15:00,
2013-05-14 08:20:00,62.3,47.8,29.67,West,261,0.0,11.0,59,0.00, +TSGR FG,SKC,-99.99,VWS V12.07,2013-05-14 13:20:00,
2013-05-14 08:25:00,62.5,48.0,29.67,SW,215,4.0,11.0,59,0.00, +TSGR FG,SKC,-99.99,VWS V12.07,2013-05-14 13:25:00,
2013-05-14 08:30:00,62.7,48.6,29.67,SSW,205,1.0,11.0,60,0.00, +TSGR FG,SKC,-99.99,VWS V12.07,2013-05-14 13:30:00,
2013-05-14 08:35:00,63.1,48.6,29.67,West,277,3.0,6.0,59,0.00, +TSGR FG,SKC,-99.99,VWS V12.07,2013-05-14 13:35:00,
2013-05-14 08:40:00,63.4,49.3,29.67,SW,236,3.0,8.0,60,0.00, +TSGR FG,SKC,-99.99,VWS V12.07,2013-05-14 13:40:00,
2013-05-14 08:45:00,63.7,49.1,29.67,WSW,237,4.0,6.0,59,0.00, +TSGR FG,SKC,-99.99,VWS V12.07,2013-05-14 13:45:00,
2013-05-14 08:50:00,64.1,49.0,29.67,WSW,252,2.0,6.0,58,0.00, +TSGR FG,SKC,-99.99,VWS V12.07,2013-05-14 13:50:00,
2013-05-14 08:55:00,64.4,49.8,29.67,West,275,2.0,8.0,59,0.00, +TSGR FG,SKC,-99.99,VWS V12.07,2013-05-14 13:55:00,
2013-05-14 09:00:00,64.8,50.2,29.66,SW,221,2.0,10.0,59,0.00, +TSGR FG,SKC,-99.99,VWS V12.07,2013-05-14 14:00:00,
2013-05-14 09:05:00,65.1,50.4,29.66,North,360,4.0,5.0,59,0.00, +TSGR FG,SKC,-99.99,VWS V12.07,2013-05-14 14:05:00,
2013-05-14 09:10:00,65.4,50.2,29.67,SW,226,1.0,11.0,58,0.00, +TSGR FG,SKC,-99.99,VWS V12.07,2013-05-14 14:10:00,
2013-05-14 09:15:00,65.7,50.5,29.66,SW,236,1.0,6.0,58,0.00, +TSGR FG,SKC,-99.99,VWS V12.07,2013-05-14 14:15:00,
2013-05-14 09:20:00,65.9,50.7,29.66,SSW,202,0.0,10.0,58,0.00, +TSGR FG,SKC,-99.99,VWS V12.07,2013-05-14 14:20:00,
2013-05-14 09:25:00,66.3,51.1,29.66,WNW,296,2.0,6.0,58,0.00, +TSGR FG,SKC,-99.99,VWS V12.07,2013-05-14 14:25:00,
2013-05-14 09:30:00,66.6,51.8,29.66,SW,217,0.0,7.0,59,0.00, +TSGR FG,SKC,-99.99,VWS V12.07,2013-05-14 14:30:00,
2013-05-14 09:35:00,67.0,51.3,29.65,NW,315,2.0,6.0,57,0.00, +TSGR FG,SKC,-99.99,VWS V12.07,2013-05-14 14:35:00,
2013-05-14 09:40:00,67.6,51.4,29.65,SSE,161,4.0,6.0,56,0.00, +TSGR FG,SKC,-99.99,VWS V12.07,2013-05-14 14:40:00,
2013-05-14 09:45:00,68.1,51.3,29.65,West,273,4.0,6.0,55,0.00, +TSGR FG,SKC,-99.99,VWS V12.07,2013-05-14 14:45:00,
2013-05-14 09:50:00,68.4,52.6,29.64,SSW,195,5.0,6.0,57,0.00, +TSGR FG,SKC,-99.99,VWS V12.07,2013-05-14 14:50:00,
2013-05-14 09:55:00,68.8,52.5,29.64,NW,320,4.0,9.0,56,0.00, +TSGR FG,SKC,-99.99,VWS V12.07,2013-05-14 14:55:00,
2013-05-14 10:00:00,69.1,52.8,29.65,WSW,246,4.0,9.0,56,0.00, +TSGR FG,SKC,-99.99,VWS V12.07,2013-05-14 15:00:00,
2013-05-14 10:05:00,69.1,52.8,29.65,NNW,331,2.0,8.0,56,0.00, +TSGR FG,SKC,-99.99,VWS V12.07,2013-05-14 15:05:00,
2013-05-14 10:10:00,69.5,52.2,29.65,WNW,282,1.0,8.0,54,0.00, +TSGR FG,SKC,-99.99,VWS V12.07,2013-05-14 15:10:00,
2013-05-14 10:15:00,69.8,53.9,29.65,WNW,297,2.0,6.0,57,0.00, +TSGR FG,SKC,-99.99,VWS V12.07,2013-05-14 15:15:00,
2013-05-14 10:20:00,70.3,53.4,29.65,NW,319,2.0,10.0,55,0.00, +TSGR FG,SKC,-99.99,VWS V12.07,2013-05-14 15:20:00,
2013-05-14 10:25:00,70.6,52.7,29.65,WSW,243,2.0,6.0,53,0.00, +TSGR FG,SKC,-99.99,VWS V12.07,2013-05-14 15:25:00,
2013-05-14 10:30:00,71.0,53.5,29.65,NNW,335,6.0,11.0,54,0.00, +TSGR FG,SKC,-99.99,VWS V12.07,2013-05-14 15:30:00,
2013-05-14 10:35:00,71.1,53.1,29.66,South,184,4.0,10.0,53,0.00, +TSGR FG,SKC,-99.99,VWS V12.07,2013-05-14 15:35:00,
2013-05-14 10:40:00,71.4,53.4,29.66,NNW,342,3.0,10.0,53,0.00, +TSGR FG,SKC,-99.99,VWS V12.07,2013-05-14 15:40:00,
2013-05-14 10:45:00,71.9,54.9,29.67,NW,304,0.0,7.0,55,0.00, +TSGR FG,SKC,-99.99,VWS V12.07,2013-05-14 15:45:00,
2013-05-14 10:50:00,72.3,53.7,29.67,NW,311,3.0,7.0,52,0.00, +TSGR FG,SKC,-99.99,VWS V12.07,2013-05-14 15:50:00,
2013-05-14 10:55:00,72.8,54.2,29.68,West,267,2.0,8.0,52,0.00, +TSGR FG,SKC,-99.99,VWS V12.07,2013-05-14 15:55:00,
2013-05-14 11:00:00,72.6,54.0,29.68,West,262,3.0,8.0,52,0.00, +TSGR FG,SKC,-99.99,VWS V12.07,2013-05-14 16:00:00,
2013-05-14 11:05:00,72.7,53.5,29.68,WNW,290,1.0,9.0,51,0.00, +TSGR FG,SKC,-99.99,VWS V12.07,2013-05-14 16:05:00,
2013-05-14 11:10:00,73.0,54.4,29.68,SE,136,0.0,9.0,52,0.00, +TSGR FG,SKC,-99.99,VWS V12.07,2013-05-14 16:10:00,
2013-05-14 11:15:00,73.3,54.1,29.68,SW,227,1.0,7.0,51,0.00, +TSGR FG,SKC,-99.99,VWS V12.07,2013-05-14 16:15:00,
2013-05-14 11:20:00,73.7,53.9,29.67,West,265,0.0,7.0,50,0.00, +TSGR FG,SKC,-99.99,VWS V12.07,2013-05-14 16:20:00,
2013-05-14 11:25:00,74.1,54.8,29.67,WNW,292,1.0,6.0,51,0.00, +TSGR FG,SKC,-99.99,VWS V12.07,2013-05-14 16:25:00,
2013-05-14 11:30:00,74.1,54.3,29.67,South,173,2.0,6.0,50,0.00, +TSGR FG,SKC,-99.99,VWS V12.07,2013-05-14 16:30:00,
2013-05-14 11:35:00,74.3,53.9,29.67,NW,319,0.0,5.0,49,0.00, +TSGR FG,SKC,-99.99,VWS V12.07,2013-05-14 16:35:00,
2013-05-14 11:40:00,74.4,52.9,29.67,NW,317,1.0,5.0,47,0.00, +TSGR FG,SKC,-99.99,VWS V12.07,2013-05-14 16:40:00,
2013-05-14 11:45:00,74.4,53.5,29.67,NW,316,0.0,7.0,48,0.00, +TSGR FG,SKC,-99.99,VWS V12.07,2013-05-14 16:45:00,
2013-05-14 11:50:00,74.6,53.1,29.67,North,355,4.0,7.0,47,0.00, +TSGR FG,SKC,-99.99,VWS V12.07,2013-05-14 16:50:00,
2013-05-14 11:55:00,74.6,54.2,29.68,WNW,286,1.0,4.0,49,0.00, +TSGR FG,SKC,-99.99,VWS V12.07,2013-05-14 16:55:00,
2013-05-14 12:05:00,75.0,52.8,29.68,West,265,2.0,6.0,46,0.00, +TSGR FG,SKC,-99.99,VWS V12.07,2013-05-14 17:05:00,
2013-05-14 12:10:00,75.0,54.0,29.67,NE,51,2.0,6.0,48,0.00, +TSGR FG,SKC,-99.99,VWS V12.07,2013-05-14 17:10:00,
2013-05-14 12:15:00,74.9,52.8,29.68,North,350,3.0,5.0,46,0.00, +TSGR FG,SKC,-99.99,VWS V12.07,2013-05-14 17:15:00,
2013-05-14 12:20:00,75.1,53.5,29.68,NW,323,2.0,5.0,47,0.00, +TSGR FG,SKC,-99.99,VWS V12.07,2013-05-14 17:20:00,
2013-05-14 12:25:00,75.5,53.9,29.68,WNW,300,2.0,7.0,47,0.00, +TSGR FG,SKC,-99.99,VWS V12.07,2013-05-14 17:25:00,
2013-05-14 12:30:00,75.8,56.4,29.68,SSW,201,2.0,7.0,51,0.00, +TSGR FG,SKC,-99.99,VWS V12.07,2013-05-14 17:30:00,
2013-05-14 12:35:00,76.3,54.0,29.68,NNW,330,4.0,4.0,46,0.00, +TSGR FG,SKC,-99.99,VWS V12.07,2013-05-14 17:35:00,
2013-05-14 12:40:00,76.3,52.8,29.68,North,360,3.0,6.0,44,0.00, +TSGR FG,SKC,-99.99,VWS V12.07,2013-05-14 17:40:00,
2013-05-14 12:45:00,76.5,53.6,29.68,SSW,196,3.0,5.0,45,0.00, +TSGR FG,SKC,-99.99,VWS V12.07,2013-05-14 17:45:00,
2013-05-14 12:50:00,76.7,53.8,29.68,South,185,2.0,5.0,45,0.00, +TSGR FG,SKC,-99.99,VWS V12.07,2013-05-14 17:50:00,
2013-05-14 12:55:00,76.6,53.7,29.68,ESE,105,4.0,5.0,45,0.00, +TSGR FG,SKC,-99.99,VWS V12.07,2013-05-14 17:55:00,
2013-05-14 13:00:00,76.7,55.5,29.68,NNW,346,2.0,5.0,48,0.00, +TSGR FG,SKC,-99.99,VWS V12.07,2013-05-14 18:00:00,
2013-05-14 13:05:00,77.2,54.2,29.68,WSW,252,1.0,3.0,45,0.00, +TSGR FG,SKC,-99.99,VWS V12.07,2013-05-14 18:05:00,
2013-05-14 13:10:00,77.8,54.8,29.68,North,355,3.0,6.0,45,0.00, +TSGR FG,SKC,-99.99,VWS V12.07,2013-05-14 18:10:00,
2013-05-14 13:15:00,78.2,54.5,29.68,SW,231,2.0,6.0,44,0.00, +TSGR FG,SKC,-99.99,VWS V12.07,2013-05-14 18:15:00,
2013-05-14 13:20:00,78.6,54.3,29.68,WNW,296,2.0,6.0,43,0.00, +TSGR FG,SKC,-99.99,VWS V12.07,2013-05-14 18:20:00,
2013-05-14 13:25:00,78.9,56.4,29.67,NNW,346,4.0,4.0,46,0.00, +TSGR FG,SKC,-99.99,VWS V12.07,2013-05-14 18:25:00,
2013-05-14 13:30:00,79.3,57.3,29.67,NNW,331,1.0,4.0,47,0.00, +TSGR FG,SKC,-99.99,VWS V12.07,2013-05-14 18:30:00,
2013-05-14 13:35:00,79.6,55.8,29.67,NW,319,2.0,4.0,44,0.00, +TSGR FG,SKC,-99.99,VWS V12.07,2013-05-14 18:35:00,
2013-05-14 13:40:00,79.8,53.4,29.67,West,271,2.0,4.0,40,0.00, +TSGR FG,SKC,-99.99,VWS V12.07,2013-05-14 18:40:00,
2013-05-14 13:45:00,79.6,54.5,29.67,West,275,1.0,5.0,42,0.00, +TSGR FG,SKC,-99.99,VWS V12.07,2013-05-14 18:45:00,
2013-05-14 13:50:00,79.7,53.9,29.67,South,184,3.0,5.0,41,0.00, +TSGR FG,SKC,-99.99,VWS V12.07,2013-05-14 18:50:00,
2013-05-14 13:55:00,79.4,55.0,29.67,SSW,195,1.0,8.0,43,0.00, +TSGR FG,SKC,-99.99,VWS V12.07,2013-05-14 18:55:00,
2013-05-14 14:00:00,79.4,54.3,29.67,SSW,213,2.0,8.0,42,0.00, +TSGR FG,SKC,-99.99,VWS V12.07,2013-05-14 19:00:00,
2013-05-14 14:05:00,79.7,55.9,29.67,SSW,205,2.0,3.0,44,0.00, +TSGR FG,SKC,-99.99,VWS V12.07,2013-05-14 19:05:00,
2013-05-14 14:10:00,80.2,54.4,29.68,North,355,1.0,6.0,41,0.00, +TSGR FG,SKC,-99.99,VWS V12.07,2013-05-14 19:10:00,
2013-05-14 14:15:00,80.6,54.1,29.68,WNW,303,2.0,4.0,40,0.00, +TSGR FG,SKC,-99.99,VWS V12.07,2013-05-14 19:15:00,
2013-05-14 14:20:00,81.2,53.2,29.68,NW,307,5.0,5.0,38,0.00, +TSGR FG,SKC,-99.99,VWS V12.07,2013-05-14 19:20:00,
2013-05-14 14:25:00,81.2,51.7,29.69,NNE,24,2.0,8.0,36,0.00, +TSGR FG,SKC,-99.99,VWS V12.07,2013-05-14 19:25:00,
2013-05-14 14:30:00,81.6,52.8,29.69,NW,324,1.0,8.0,37,0.00, +TSGR FG,SKC,-99.99,VWS V12.07,2013-05-14 19:30:00,
2013-05-14 14:35:00,82.0,53.2,29.69,NNW,332,3.0,5.0,37,0.00, +TSGR FG,SKC,-99.99,VWS V12.07,2013-05-14 19:35:00,
2013-05-14 14:40:00,82.0,51.7,29.69,North,355,1.0,6.0,35,0.00, +TSGR FG,SKC,-99.99,VWS V12.07,2013-05-14 19:40:00,
2013-05-14 14:45:00,82.0,52.4,29.69,NNW,346,4.0,9.0,36,0.00, +TSGR FG,SKC,-99.99,VWS V12.07,2013-05-14 19:45:00,
2013-05-14 14:50:00,81.6,52.8,29.69,NNE,19,6.0,9.0,37,0.00, +TSGR FG,SKC,-99.99,VWS V12.07,2013-05-14 19:50:00,
2013-05-14 14:55:00,81.6,54.3,29.69,NE,45,6.0,7.0,39,0.00, +TSGR FG,SKC,-99.99,VWS V12.07,2013-05-14 19:55:00,
2013-05-14 15:00:00,82.0,50.1,29.69,NW,325,2.0,11.0,33,0.00, +TSGR FG,SKC,-99.99,VWS V12.07,2013-05-14 20:00:00,
2013-05-14 15:05:00,82.0,51.7,29.69,NE,39,4.0,6.0,35,0.00, +TSGR FG,SKC,-99.99,VWS V12.07,2013-05-14 20:05:00,
2013-05-14 15:10:00,82.0,53.2,29.69,NNE,13,7.0,8.0,37,0.00, +TSGR FG,SKC,-99.99,VWS V12.07,2013-05-14 20:10:00,
2013-05-14 15:15:00,81.5,51.2,29.68,NE,42,3.0,10.0,35,0.00, +TSGR FG,SKC,-99.99,VWS V12.07,2013-05-14 20:15:00,
2013-05-14 15:20:00,81.0,55.1,29.68,ENE,72,4.0,10.0,41,0.00, +TSGR FG,SKC,-99.99,VWS V12.07,2013-05-14 20:20:00,
2013-05-14 15:25:00,78.8,55.1,29.68,ENE,71,5.0,8.0,44,0.00, +TSGR FG,SKC,-99.99,VWS V12.07,2013-05-14 20:25:00,
2013-05-14 15:30:00,76.6,53.7,29.68,East,94,6.0,12.0,45,0.00, +TSGR FG,SKC,-99.99,VWS V12.07,2013-05-14 20:30:00,
2013-05-14 15:35:00,75.3,54.3,29.68,ESE,102,6.0,9.0,48,0.00, +TSGR FG,SKC,-99.99,VWS V12.07,2013-05-14 20:35:00,
2013-05-14 15:40:00,74.4,52.9,29.67,East,88,12.0,12.0,47,0.00, +TSGR FG,SKC,-99.99,VWS V12.07,2013-05-14 20:40:00,
2013-05-14 15:45:00,73.9,54.7,29.67,ENE,74,7.0,8.0,51,0.00, +TSGR FG,SKC,-99.99,VWS V12.07,2013-05-14 20:45:00,
2013-05-14 15:50:00,73.8,54.0,29.66,ESE,115,8.0,9.0,50,0.00, +TSGR FG,SKC,-99.99,VWS V12.07,2013-05-14 20:50:00,
2013-05-14 15:55:00,73.3,53.6,29.65,ESE,111,8.0,11.0,50,0.00, +TSGR FG,SKC,-99.99,VWS V12.07,2013-05-14 20:55:00,
2013-05-14 16:00:00,72.9,53.2,29.64,SE,136,9.0,11.0,50,0.00, +TSGR FG,SKC,-99.99,VWS V12.07,2013-05-14 21:00:00,
2013-05-14 16:05:00,72.7,53.5,29.60,SE,144,10.0,13.0,51,0.00, +TSGR FG,SKC,-99.99,VWS V12.07,2013-05-14 21:05:00,
2013-05-14 16:10:00,72.7,53.0,29.61,ESE,111,6.0,13.0,50,0.00, +TSGR FG,SKC,-99.99,VWS V12.07,2013-05-14 21:10:00,
2013-05-14 16:15:00,72.8,53.6,29.60,South,177,7.0,12.0,51,0.00, +TSGR FG,SKC,-99.99,VWS V12.07,2013-05-14 21:15:00,
2013-05-14 16:20:00,72.8,53.6,29.59,SSW,210,3.0,12.0,51,0.00, +TSGR FG,SKC,-99.99,VWS V12.07,2013-05-14 21:20:00,
2013-05-14 16:25:00,73.0,54.4,29.62,SE,125,1.0,7.0,52,0.00, +TSGR FG,SKC,-99.99,VWS V12.07,2013-05-14 21:25:00,
2013-05-14 16:30:00,72.9,54.3,29.60,SE,146,8.0,11.0,52,0.00, +TSGR FG,SKC,-99.99,VWS V12.07,2013-05-14 21:30:00,
2013-05-14 16:35:00,72.7,54.6,29.60,SSE,161,5.0,10.0,53,0.00, +TSGR FG,SKC,-99.99,VWS V12.07,2013-05-14 21:35:00,
2013-05-14 16:40:00,72.2,53.6,29.59,South,178,7.0,12.0,52,0.00, +TSGR FG,SKC,-99.99,VWS V12.07,2013-05-14 21:40:00,
2013-05-14 16:45:00,72.0,53.4,29.61,SE,132,1.0,10.0,52,0.00, +TSGR FG,SKC,-99.99,VWS V12.07,2013-05-14 21:45:00,
2013-05-14 16:50:00,71.9,53.9,29.62,SE,132,4.0,10.0,53,0.00, +TSGR FG,SKC,-99.99,VWS V12.07,2013-05-14 21:50:00,
2013-05-14 16:55:00,71.8,53.8,29.62,East,88,4.0,4.0,53,0.00, +TSGR FG,SKC,-99.99,VWS V12.07,2013-05-14 21:55:00,
2013-05-14 17:00:00,71.9,54.4,29.62,East,90,5.0,6.0,54,0.00, +TSGR FG,SKC,-99.99,VWS V12.07,2013-05-14 22:00:00,
2013-05-14 17:05:00,72.3,55.2,29.61,SE,126,2.0,5.0,55,0.00, +TSGR FG,SKC,-99.99,VWS V12.07,2013-05-14 22:05:00,
2013-05-14 17:10:00,72.5,53.9,29.61,SE,129,7.0,9.0,52,0.00, +TSGR FG,SKC,-99.99,VWS V12.07,2013-05-14 22:10:00,
2013-05-14 17:15:00,72.3,54.2,29.61,SE,132,5.0,8.0,53,0.00, +TSGR FG,SKC,-99.99,VWS V12.07,2013-05-14 22:15:00,
2013-05-14 17:20:00,72.3,55.2,29.61,ESE,105,5.0,8.0,55,0.00, +TSGR FG,SKC,-99.99,VWS V12.07,2013-05-14 22:20:00,
2013-05-14 17:25:00,72.4,54.8,29.61,ESE,103,4.0,7.0,54,0.00, +TSGR FG,SKC,-99.99,VWS V12.07,2013-05-14 22:25:00,
2013-05-14 17:30:00,72.6,54.5,29.60,SE,128,2.0,9.0,53,0.00, +TSGR FG,SKC,-99.99,VWS V12.07,2013-05-14 22:30:00,
2013-05-14 17:35:00,73.0,54.9,29.60,SE,142,5.0,6.0,53,0.00, +TSGR FG,SKC,-99.99,VWS V12.07,2013-05-14 22:35:00,
2013-05-14 17:40:00,73.3,54.6,29.60,ESE,113,7.0,8.0,52,0.00, +TSGR FG,SKC,-99.99,VWS V12.07,2013-05-14 22:40:00,
2013-05-14 17:50:00,72.9,55.3,29.59,ENE,73,3.0,8.0,54,0.00, +TSGR FG,SKC,-99.99,VWS V12.07,2013-05-14 22:50:00,
2013-05-14 17:55:00,72.6,54.5,29.60,East,80,6.0,8.0,53,0.00, +TSGR FG,SKC,-99.99,VWS V12.07,2013-05-14 22:55:00,
2013-05-14 18:00:00,72.4,54.3,29.60,East,96,4.0,8.0,53,0.00, +TSGR FG,SKC,-99.99,VWS V12.07,2013-05-14 23:00:00,
2013-05-14 18:05:00,72.2,54.1,29.60,East,89,5.0,7.0,53,0.00, +TSGR FG,SKC,-99.99,VWS V12.07,2013-05-14 23:05:00,
2013-05-14 18:10:00,72.2,54.7,29.60,East,90,2.0,7.0,54,0.00, +TSGR FG,SKC,-99.99,VWS V12.07,2013-05-14 23:10:00,
2013-05-14 18:15:00,71.9,53.9,29.59,ESE,107,5.0,11.0,53,0.00, +TSGR FG,SKC,-99.99,VWS V12.07,2013-05-14 23:15:00,
2013-05-14 18:20:00,71.6,54.6,29.59,East,94,4.0,11.0,55,0.00, +TSGR FG,SKC,-99.99,VWS V12.07,2013-05-14 23:20:00,
2013-05-14 18:25:00,71.6,54.1,29.58,East,86,4.0,8.0,54,0.00, +TSGR FG,SKC,-99.99,VWS V12.07,2013-05-14 23:25:00,
2013-05-14 18:30:00,71.2,53.7,29.58,ENE,76,2.0,8.0,54,0.00, +TSGR FG,SKC,-99.99,VWS V12.07,2013-05-14 23:30:00,
2013-05-14 18:35:00,70.5,53.6,29.57,East,101,2.0,9.0,55,0.00, +TSGR FG,SKC,-99.99,VWS V12.07,2013-05-14 23:35:00,
2013-05-14 18:40:00,69.7,53.3,29.57,ESE,114,7.0,10.0,56,0.00, +TSGR FG,SKC,-99.99,VWS V12.07,2013-05-14 23:40:00,
2013-05-14 18:45:00,69.2,53.3,29.57,SE,144,5.0,6.0,57,0.00, +TSGR FG,SKC,-99.99,VWS V12.07,2013-05-14 23:45:00,
2013-05-14 18:50:00,68.8,53.0,29.57,ESE,106,4.0,9.0,57,0.00, +TSGR FG,SKC,-99.99,VWS V12.07,2013-05-14 23:50:00,
2013-05-14 18:55:00,68.3,52.5,29.57,ESE,123,7.0,8.0,57,0.00, +TSGR FG,SKC,-99.99,VWS V12.07,2013-05-14 23:55:00,
2013-05-14 19:00:00,67.9,52.6,29.56,ESE,108,4.0,8.0,58,0.00, +TSGR FG,SKC,-99.99,VWS V12.07,2013-05-15 00:00:00,
2013-05-14 19:05:00,67.7,52.9,29.56,ESE,117,5.0,6.0,59,0.00, +TSGR FG,SKC,-99.99,VWS V12.07,2013-05-15 00:05:00,
2013-05-14 19:10:00,67.6,53.2,29.56,ESE,105,2.0,7.0,60,0.00, +TSGR FG,SKC,-99.99,VWS V12.07,2013-05-15 00:10:00,
2013-05-14 19:15:00,67.4,53.0,29.57,SE,142,4.0,7.0,60,0.00, +TSGR FG,SKC,-99.99,VWS V12.07,2013-05-15 00:15:00,
2013-05-14 19:20:00,67.1,53.2,29.57,SE,130,4.0,7.0,61,0.00, +TSGR FG,SKC,-99.99,VWS V12.07,2013-05-15 00:20:00,
2013-05-14 19:25:00,66.8,53.4,29.57,ESE,123,1.0,6.0,62,0.00, +TSGR FG,SKC,-99.99,VWS V12.07,2013-05-15 00:25:00,
2013-05-14 19:30:00,66.6,53.2,29.57,SE,128,5.0,6.0,62,0.00, +TSGR FG,SKC,-99.99,VWS V12.07,2013-05-15 00:30:00,
2013-05-14 19:35:00,66.3,53.3,29.57,SE,136,0.0,9.0,63,0.00, +TSGR FG,SKC,-99.99,VWS V12.07,2013-05-15 00:35:00,
2013-05-14 19:40:00,66.1,53.2,29.56,SE,127,5.0,9.0,63,0.00, +TSGR FG,SKC,-99.99,VWS V12.07,2013-05-15 00:40:00,
2013-05-14 19:45:00,65.8,53.3,29.56,SE,141,6.0,6.0,64,0.00, +TSGR FG,SKC,-99.99,VWS V12.07,2013-05-15 00:45:00,
2013-05-14 19:50:00,65.7,53.6,29.55,SSE,167,5.0,7.0,65,0.00, +TSGR FG,SKC,-99.99,VWS V12.07,2013-05-15 00:50:00,
2013-05-14 19:55:00,65.7,53.6,29.55,South,174,4.0,9.0,65,0.00, +TSGR FG,SKC,-99.99,VWS V12.07,2013-05-15 00:55:00,
2013-05-14 20:00:00,65.8,53.7,29.56,SSE,163,10.0,10.0,65,0.00, +TSGR FG,SKC,-99.99,VWS V12.07,2013-05-15 01:00:00,
2013-05-14 20:05:00,66.0,53.5,29.56,SSE,157,7.0,13.0,64,0.00, +TSGR FG,SKC,-99.99,VWS V12.07,2013-05-15 01:05:00,
2013-05-14 20:10:00,65.8,53.3,29.55,South,173,5.0,15.0,64,0.00, +TSGR FG,SKC,-99.99,VWS V12.07,2013-05-15 01:10:00,
2013-05-14 20:15:00,65.5,53.4,29.55,SSE,166,7.0,10.0,65,0.00, +TSGR FG,SKC,-99.99,VWS V12.07,2013-05-15 01:15:00,
2013-05-14 20:20:00,65.3,53.2,29.55,South,180,5.0,12.0,65,0.00, +TSGR FG,SKC,-99.99,VWS V12.07,2013-05-15 01:20:00,
2013-05-14 20:25:00,65.3,53.7,29.56,South,187,7.0,11.0,66,0.00, +TSGR FG,SKC,-99.99,VWS V12.07,2013-05-15 01:25:00,
2013-05-14 20:30:00,65.3,53.7,29.55,South,189,6.0,11.0,66,0.00, +TSGR FG,SKC,-99.99,VWS V12.07,2013-05-15 01:30:00,
2013-05-14 20:40:00,65.8,53.7,29.54,SSE,148,5.0,13.0,65,0.00, +TSGR FG,SKC,-99.99,VWS V12.07,2013-05-15 01:40:00,
2013-05-14 20:45:00,66.1,54.0,29.56,South,185,4.0,12.0,65,0.00, +TSGR FG,SKC,-99.99,VWS V12.07,2013-05-15 01:45:00,
2013-05-14 20:50:00,66.2,54.1,29.58,SSE,165,6.0,12.0,65,0.00, +TSGR FG,SKC,-99.99,VWS V12.07,2013-05-15 01:50:00,
2013-05-14 20:55:00,66.3,54.2,29.55,ESE,110,2.0,9.0,65,0.00, +TSGR FG,SKC,-99.99,VWS V12.07,2013-05-15 01:55:00,
2013-05-14 21:00:00,68.4,57.8,29.54,SSW,209,16.0,24.0,69,0.00, +TSGR FG,SKC,-99.99,VWS V12.07,2013-05-15 02:00:00,
2013-05-14 21:05:00,73.1,57.9,29.58,SW,219,10.0,24.0,59,0.00, +TSGR FG,SKC,-99.99,VWS V12.07,2013-05-15 02:05:00,
2013-05-14 21:10:00,74.2,59.0,29.61,SSW,209,7.0,24.0,59,0.01, +TSGR FG,SKC,-99.99,VWS V12.07,2013-05-15 02:10:00,
2013-05-14 21:15:00,73.2,59.4,29.59,South,180,8.0,12.0,62,0.03, +TSGR FG,SKC,-99.99,VWS V12.07,2013-05-15 02:15:00,
2013-05-14 21:20:00,72.3,59.0,29.51,South,188,10.0,16.0,63,0.03, +TSGR FG,SKC,-99.99,VWS V12.07,2013-05-15 02:20:00,
2013-05-14 21:25:00,71.8,58.5,29.50,SW,224,12.0,18.0,63,0.04, +TSGR FG,SKC,-99.99,VWS V12.07,2013-05-15 02:25:00,
2013-05-14 21:30:00,72.4,57.8,29.52,SSE,157,7.0,18.0,60,0.04, +TSGR FG,SKC,-99.99,VWS V12.07,2013-05-15 02:30:00,
2013-05-14 21:35:00,73.5,57.8,29.52,SSE,150,10.0,17.0,58,0.04, +TSGR FG,SKC,-99.99,VWS V12.07,2013-05-15 02:35:00,
2013-05-14 21:40:00,74.0,57.3,29.53,SW,234,6.0,17.0,56,0.04, +TSGR FG,SKC,-99.99,VWS V12.07,2013-05-15 02:40:00,
2013-05-14 21:45:00,74.2,57.0,29.52,SSW,200,5.0,11.0,55,0.04, +TSGR FG,SKC,-99.99,VWS V12.07,2013-05-15 02:45:00,
2013-05-14 21:50:00,73.9,57.2,29.52,SW,229,2.0,11.0,56,0.04, +TSGR FG,SKC,-99.99,VWS V12.07,2013-05-15 02:50:00,
2013-05-14 21:55:00,73.6,57.0,29.52,SSE,163,5.0,13.0,56,0.04, +TSGR FG,SKC,-99.99,VWS V12.07,2013-05-15 02:55:00,
2013-05-14 22:00:00,73.3,57.2,29.52,South,176,5.0,13.0,57,0.04, +TSGR FG,SKC,-99.99,VWS V12.07,2013-05-15 03:00:00,
2013-05-14 22:05:00,73.2,57.1,29.52,SSE,163,5.0,11.0,57,0.04, +TSGR FG,SKC,-99.99,VWS V12.07,2013-05-15 03:05:00,
2013-05-14 22:10:00,73.5,56.9,29.51,SSE,167,9.0,13.0,56,0.04, +TSGR FG,SKC,-99.99,VWS V12.07,2013-05-15 03:10:00,
2013-05-14 22:15:00,74.0,56.3,29.50,SSE,165,7.0,14.0,54,0.03, +TSGR FG,SKC,-99.99,VWS V12.07,2013-05-15 03:15:00,
2013-05-14 22:20:00,74.8,57.1,29.50,SSW,200,8.0,14.0,54,0.03, +TSGR FG,SKC,-99.99,VWS V12.07,2013-05-15 03:20:00,
2013-05-14 22:25:00,75.1,56.8,29.50,SSW,196,6.0,15.0,53,0.01, +TSGR FG,SKC,-99.99,VWS V12.07,2013-05-15 03:25:00,
2013-05-14 22:30:00,75.1,57.3,29.49,SSW,196,8.0,15.0,54,0.01, +TSGR FG,SKC,-99.99,VWS V12.07,2013-05-15 03:30:00,
2013-05-14 22:35:00,75.3,57.5,29.48,South,170,11.0,15.0,54,0.00, +TSGR FG,SKC,-99.99,VWS V12.07,2013-05-15 03:35:00,
2013-05-14 22:40:00,75.6,57.3,29.48,SSW,194,5.0,18.0,53,0.00, +TSGR FG,SKC,-99.99,VWS V12.07,2013-05-15 03:40:00,
2013-05-14 22:45:00,75.6,57.3,29.47,SW,226,4.0,15.0,53,0.00, +TSGR FG,SKC,-99.99,VWS V12.07,2013-05-15 03:45:00,
2013-05-14 22:50:00,75.4,57.6,29.47,SW,229,3.0,15.0,54,0.00, +TSGR FG,SKC,-99.99,VWS V12.07,2013-05-15 03:50:00,
2013-05-14 22:55:00,75.0,57.8,29.47,South,183,6.0,13.0,55,0.00, +TSGR FG,SKC,-99.99,VWS V12.07,2013-05-15 03:55:00,
2013-05-14 23:00:00,74.5,57.8,29.47,South,178,5.0,15.0,56,0.00, +TSGR FG,SKC,-99.99,VWS V12.07,2013-05-15 04:00:00,
2013-05-14 23:05:00,74.1,57.4,29.47,South,174,4.0,12.0,56,0.00, +TSGR FG,SKC,-99.99,VWS V12.07,2013-05-15 04:05:00,
2013-05-14 23:10:00,73.8,57.6,29.47,SSW,209,3.0,12.0,57,0.00, +TSGR FG,SKC,-99.99,VWS V12.07,2013-05-15 04:10:00,
2013-05-14 23:15:00,73.7,57.5,29.47,South,184,4.0,10.0,57,0.00, +TSGR FG,SKC,-99.99,VWS V12.07,2013-05-15 04:15:00,
2013-05-14 23:20:00,73.3,57.7,29.47,SSW,204,1.0,10.0,58,0.00, +TSGR FG,SKC,-99.99,VWS V12.07,2013-05-15 04:20:00,
2013-05-14 23:25:00,73.0,57.8,29.47,SSE,167,1.0,7.0,59,0.00, +TSGR FG,SKC,-99.99,VWS V12.07,2013-05-15 04:25:00,
2013-05-14 23:30:00,72.7,57.6,29.48,WSW,254,4.0,7.0,59,0.00, +TSGR FG,SKC,-99.99,VWS V12.07,2013-05-15 04:30:00,
2013-05-14 23:35:00,72.6,57.9,29.48,South,180,4.0,7.0,60,0.00, +TSGR FG,SKC,-99.99,VWS V12.07,2013-05-15 04:35:00,
2013-05-14 23:40:00,72.8,58.1,29.48,South,179,5.0,7.0,60,0.00, +TSGR FG,SKC,-99.99,VWS V12.07,2013-05-15 04:40:00,
2013-05-14 23:45:00,73.3,58.6,29.47,SW,218,4.0,10.0,60,0.00, +TSGR FG,SKC,-99.99,VWS V12.07,2013-05-15 04:45:00,
2013-05-14 23:50:00,74.1,58.9,29.47,SW,230,5.0,10.0,59,0.00, +TSGR FG,SKC,-99.99,VWS V12.07,2013-05-15 04:50:00,